User: anonymous
Location: Huntington Beach
(33.6600°N, 117.9980°W)
Time: 10:33:01
(UTC-07:00)
Language:

SL-16 R/B - Orbit

View from above orbital plane
View from above orbital plane
View from above satellite
View from above satellite

Ground track
Ground track

The orbit data is extracted from the following two-line orbital elements,

1 28353U 04021B   14246.50321519 -.00000002  00000-0  23801-4 0  8317
2 28353 071.0027 052.5636 0007199 297.4122 120.9308 14.14090306528297
Epoch (UTC): 03 September 2014 12:04:37
Eccentricity: 0.0007199
inclination: 71.0027°
perigee height: 840 km
apogee height: 850 km
right ascension of ascending node: 52.5636°
argument of perigee: 297.4122°
revolutions per day: 14.14090306
mean anomaly at epoch: 120.9308°
orbit number at epoch: 52829

The dashed part of the orbit path shows where the satellite is in the earth's shadow,  

DLR